Regional Weather Roundup
Issued by NWS Sterling, VA

Home | Current Version | Previous Version | Text Only | Print | Product List | Glossary On
Versions: 1 2 3 4 5 6 7 8 9 10 11 12 13 14 15 16 17 18 19 20 21 22 23 24 25 26 27 28
000
ASUS41 KLWX 181711
RWRLWX

REGIONAL WEATHER ROUNDUP
NATIONAL WEATHER SERVICE BALTIMORE MD/WASHINGTON DC
100 PM EDT WED OCT 18 2017

Note: "FAIR" indicates few or no clouds below 12,000 feet
with no significant weather and/or obstructions to visibility.
 TC=TEMPERATURE CELSIUS

 * =Non NWS site. Station does not report precipitation (e.g. rain,
    snow, etc.), thunder, or fog.

DCZ001-MDZ009-015-VAZ040>042-051-053>054-181800-
WASHINGTON METRO

CITY           SKY/WX    TMP DP  RH WIND       PRES   REMARKS
WASHINGTON NAT SUNNY     66  44  45 S8        30.38F
DULLES         MOSUNNY   67  42  40 S6        30.38F
ANDREWS AFB    SUNNY     67  42  39 S3        30.37F
FT BELVOIR     SUNNY     67  43  41 SE5       30.38F
QUANTICO       SUNNY     66  45  46 S7        30.40F
COLLEGE PARK*  SUNNY     66  41  39 CALM      30.37F
LEESBURG*      SUNNY     68  43  40 SE3       30.39F
MANASSAS*      SUNNY     67  42  40 SE6       30.38F
GAITHERSBURG*  SUNNY     67  44  43 SW7       30.38F

$$

MDZ006>007-011-014-181800-
BALTIMORE METRO

CITY           SKY/WX    TMP DP  RH WIND       PRES   REMARKS
BWI AIRPORT    SUNNY     69  43  38 S6        30.36F
MD SCIENCE CTR   N/A     71  43  36 MISG      30.36F
MARTIN STATE   SUNNY     66  48  52 SE6       30.38F
ANNAPOLIS      SUNNY     69  46  43 VRB3      30.37F
FORT MEADE*    SUNNY     66  41  39 CALM      30.39F

$$

MDZ012-015-019>023-181800-
MARYLAND EASTERN SHORE

CITY           SKY/WX    TMP DP  RH WIND       PRES   REMARKS
OCEAN CITY     SUNNY     64  45  49 S6        30.38F
SALISBURY      SUNNY     66  45  46 VRB5      30.37F
CAMBRIDGE*     SUNNY     66  43  42 CALM      30.38F
EASTON*        SUNNY     68  39  34 W7        30.41F

$$

MDZ017>025-181800-
SOUTHERN MARYLAND

CITY           SKY/WX    TMP DP  RH WIND       PRES   REMARKS
PATUXENT RIVER SUNNY     66  37  34 W6        30.38F
ST INIGOES     SUNNY     65  38  36 SW6       30.38F
LEONARDTOWN*   NOT AVBL

$$

MDZ003>005-181800-
NORTH CENTRAL MARYLAND

CITY           SKY/WX    TMP DP  RH WIND       PRES   REMARKS
FREDERICK*     SUNNY     70  39  32 W5        30.40F
HAGERSTOWN APT SUNNY     63  41  44 SW7       30.37F
WESTMINSTER*   SUNNY     64  45  48 S5        30.36F

$$

MDZ501>502-181800-
WESTERN MARYLAND

CITY           SKY/WX    TMP DP  RH WIND       PRES   REMARKS
OAKLAND*       SUNNY     59  36  41 SE8G16    30.35S
CUMBERLAND*    SUNNY     63  41  45 S5        30.41F

$$

VAZ025>031-181800-
SHENANDOAH VALLEY

CITY           SKY/WX    TMP DP  RH WIND       PRES   REMARKS
WINCHESTER*    SUNNY     63  41  45 CALM      30.37F
FRONT ROYAL*   SUNNY     64  41  42 CALM      30.36F
LURAY*         SUNNY     64  39  39 SW5       30.38F
NEW MARKET*    SUNNY     65  38  37 S5        30.37F
STAUNTON*      SUNNY     64  39  40 S3        30.40F
WAYNESBORO*    SUNNY     64  40  41 E7        30.39F

$$

WVZ021-048>050-054>055-181800-
EASTERN WEST VIRGINIA PANHANDLE

CITY           SKY/WX    TMP DP  RH WIND       PRES   REMARKS
MARTINSBURG    SUNNY     65  43  44 S6        30.37F
PETERSBURG*    SUNNY     65  39  38 CALM      30.36F

$$

VAZ036>039-050-181800-
CENTRAL FOOTHILLS

CITY           SKY/WX    TMP DP  RH WIND       PRES   REMARKS
CHARLOTTESVILL SUNNY     67  39  35 VRB5      30.39F
CULPEPER*      SUNNY     69  39  32 S5        30.39F
ORANGE*        SUNNY     64  39  39 CALM      30.39F
GORDONSVILLE*  SUNNY     67  42  40 SW5       30.38F
WARRENTON*     SUNNY     70  34  26 CALM      30.38F

$$

VAZ055>057-181800-
NORTH AND CENTRAL PIEDMONT

CITY           SKY/WX    TMP DP  RH WIND       PRES   REMARKS
FREDERICKSBRG* SUNNY     67  41  38 S3        30.38F
STAFFORD*      SUNNY     67  40  38 E3        30.43F

$$

NCZ024-NYZ072-PAZ021-071-VAZ022-071-181800-
OTHER REGIONAL OBSERVATIONS

CITY           SKY/WX    TMP DP  RH WIND       PRES   REMARKS
NEW YORK CITY  SUNNY     69  43  38 CALM      30.33F
PHILADELPHIA   SUNNY     67  44  43 S8        30.34F
PITTSBURGH     MOSUNNY   64  41  42 SE5       30.33F
ROANOKE        SUNNY     62  41  46 E6        30.41F
RICHMOND       MOSUNNY   65  40  39 NE6       30.40F
RALEIGH        MOSUNNY   64  33  31 N7        30.39F

$$

ANZ530>537-181800-
MARINE OBSERVATIONS

STATION/POSITION TIME  TEMP    WIND        PRES
                       AIR SEA DIR/SP/G
                 (UTC) (F)     (DEG/KT/KT) (MB)
THOMAS PT LIGHT  1700   62 68  190/  5/  6   N/A
BALT KEY BRIDGE  1636   63     140/  5/  6 1028.4F
COVE POINT       1636   62     120/  2/  3 1029.7F
LEWISETTA        1636   61 64   70/  3/  4 1029.3F
SOLOMONS ISLAND  1636   62 70   CALM  /  2 1028.7F
PINEY POINT      1648          350/  3/  3   N/A

$$





USA.gov is the U.S. government's official web portal to all federal, state and local government web resources and services.